Location: Doughton Park
(36.4224°N, 81.1835°W)
Time: 21:02:55
(UTC-04:00)

Amateur Radio Satellites - All Passes

Search period start: 27 August 2014 20:32
Search period end: 28 August 2014 20:32
Location: Doughton Park, 36.4224°N, 81.1835°W

Satellite Date Start Highest point End Downlink Frequencies (MHz)
Time Altitude Azimuth
SO-67 27 Aug 20:41:22 20:43:46 18° 265° (W) 20:46:12 435.3500 MHz FM
STRAND 1 27 Aug 21:38:08 21:41:13 16° 296° (WNW) 21:44:18 ?
UKube-1 27 Aug 22:05:40 22:10:01 88° 76° (ENE) 22:14:23 145.840 MHz, 145.915 MHz
HO-68 27 Aug 22:10:41 22:17:39 57° 258° (WSW) 22:24:40 435.675 MHz FM
Oscar 11 27 Aug 22:15:23 22:19:40 65° 75° (ENE) 22:23:59 145.825 FM, Beacon 2401.500 USB
FUNcube-1 27 Aug 22:32:27 22:36:13 34° 72° (ENE) 22:40:02 145.950 - 145.970 MHz USB
MaSat-1 27 Aug 23:05:49 23:07:47 13° 49° (NE) 23:09:40 437.345 MHz
Saudisat 1A 27 Aug 23:21:06 23:24:57 30° 113° (ESE) 23:28:49 436.775 MHz
KITSAT 1 28 Aug 00:00:12 00:07:40 43° 109° (ESE) 00:15:10 435.175 FM
FUNcube-1 28 Aug 00:10:11 00:12:44 16° 267° (W) 00:15:18 145.950 - 145.970 MHz USB
MaSat-1 28 Aug 00:40:58 00:45:29 65° 250° (WSW) 00:49:21 437.345 MHz
Saudisat 1A 28 Aug 01:00:51 01:04:30 25° 309° (NW) 01:08:11 436.775 MHz
KITSAT 1 28 Aug 01:55:31 02:03:02 41° 307° (NW) 02:10:36 435.175 FM
Oscar 19 28 Aug 02:00:31 02:04:15 20° 94° (E) 02:07:59 437.125 CW, 437.150 USB
ITAMSAT 1 28 Aug 02:26:27 02:29:12 14° 92° (E) 02:31:57 435.822 SSB
Oscar 16 28 Aug 02:33:51 02:38:50 45° 99° (E) 02:43:47 437.025 USB, Beacon 2401.1428
Uribyol 2 28 Aug 02:36:24 02:40:10 20° 94° (E) 02:43:54 436.500 FM
AO-Echo 28 Aug 02:52:28 02:56:31 28° 97° (E) 03:00:33 ?
AO-27 28 Aug 02:53:15 02:57:41 28° 96° (E) 03:02:05 436.795 MHz FM
Sapphire 28 Aug 02:57:30 03:02:14 30° 54° (NE) 03:06:56 437.095 MHz 1200 baud AX-25 AFSK
Gurwin Techsat 1B 28 Aug 03:04:36 03:07:40 15° 92° (E) 03:10:44 435.225 FM
PCSat 28 Aug 03:26:57 03:32:18 56° 60° (ENE) 03:37:36 145.825 MHz
Oscar 19 28 Aug 03:38:51 03:43:45 43° 289° (WNW) 03:48:37 437.125 CW, 437.150 USB
JAS-1B 28 Aug 03:48:37 03:55:29 76° 103° (ESE) 04:01:22 435.800 - 435.900 CW/SSB
OPAL 28 Aug 03:54:56 03:58:30 20° 63° (ENE) 04:02:06 ?
TMSAT-1 28 Aug 03:56:44 04:01:38 37° 98° (E) 04:06:29 436.925 FM
KITSAT 1 28 Aug 03:59:50 04:01:02 10° 332° (NNW) 04:02:15 435.175 FM
ITAMSAT 1 28 Aug 04:03:57 04:09:02 58° 287° (WNW) 04:14:06 435.822 SSB
Oscar 16 28 Aug 04:14:07 04:17:49 20° 294° (WNW) 04:21:31 437.025 USB, Beacon 2401.1428
Uribyol 2 28 Aug 04:14:54 04:19:46 43° 289° (WNW) 04:24:39 436.500 FM
SO-50 28 Aug 04:29:10 04:33:14 37° 114° (ESE) 04:37:24 436.795 FM
AO-Echo 28 Aug 04:31:22 04:35:10 25° 291° (WNW) 04:38:58 ?
AO-27 28 Aug 04:32:38 04:37:07 31° 291° (WNW) 04:41:36 436.795 MHz FM
Sapphire 28 Aug 04:40:46 04:45:39 35° 251° (WSW) 04:50:30 437.095 MHz 1200 baud AX-25 AFSK
Gurwin Techsat 1B 28 Aug 04:42:46 04:47:57 56° 287° (WNW) 04:53:08 435.225 FM
AO-7 28 Aug 04:55:50 05:03:07 33° 98° (E) 05:10:20 29.400 - 29.500 MHz
PCSat 28 Aug 05:11:48 05:15:11 17° 256° (WSW) 05:18:34 145.825 MHz
Uosat F 28 Aug 05:18:20 05:23:04 41° 99° (E) 05:27:46 435.120 FM
OPAL 28 Aug 05:32:13 05:37:00 45° 259° (WSW) 05:41:53 ?
TMSAT-1 28 Aug 05:37:07 05:41:18 25° 293° (WNW) 05:45:30 436.925 FM
JAS-1B 28 Aug 05:41:17 05:45:00 16° 304° (NW) 05:48:29 435.800 - 435.900 CW/SSB
SO-50 28 Aug 06:10:23 06:13:53 22° 311° (NW) 06:17:28 436.795 FM
UOSAT-12 28 Aug 06:44:56 06:49:29 72° 118° (ESE) 06:54:10 437.025 FM, 437.400 FM
Hamsat 28 Aug 06:47:21 06:51:17 32° 97° (E) 06:55:10 145.90 MHz
AO-7 28 Aug 06:48:09 06:56:02 50° 294° (WNW) 07:03:52 29.400 - 29.500 MHz
Uosat F 28 Aug 06:57:56 07:01:32 20° 294° (WNW) 07:05:07 435.120 FM
STRAND 1 28 Aug 07:10:56 07:15:56 61° 74° (ENE) 07:20:58 ?
JAS-2 28 Aug 07:34:31 07:39:46 88° 104° (ESE) 07:45:23 435.800 - 435.900 CW/SSB, 435.910 FM
Saudisat 1A 28 Aug 07:50:56 07:53:24 15° 46° (NE) 07:55:51 436.775 MHz
KITSAT 1 28 Aug 07:57:05 08:01:42 16° 36° (NE) 08:06:18 435.175 FM
SO-67 28 Aug 08:06:36 08:09:47 33° 98° (E) 08:12:56 435.3500 MHz FM
RS-15 28 Aug 08:10:25 08:20:58 51° 110° (ESE) 08:31:17 29.354 - 29.394 USB, Beacon 29.352 USB
Hamsat 28 Aug 08:23:54 08:26:59 19° 292° (WNW) 08:30:03 145.90 MHz
UOSAT-12 28 Aug 08:27:38 08:30:10 14° 316° (NW) 08:32:42 437.025 FM, 437.400 FM
STRAND 1 28 Aug 08:53:04 08:55:29 13° 268° (W) 08:57:54 ?
Saudisat 1A 28 Aug 09:29:01 09:33:22 62° 243° (WSW) 09:37:42 436.775 MHz
SO-67 28 Aug 09:41:22 09:42:28 11° 292° (WNW) 09:43:34 435.3500 MHz FM
HO-68 28 Aug 09:41:25 09:47:43 33° 97° (E) 09:53:58 435.675 MHz FM
KITSAT 1 28 Aug 09:50:44 09:58:47 66° 59° (ENE) 10:06:46 435.175 FM
UKube-1 28 Aug 09:57:35 10:00:32 18° 95° (E) 10:03:29 145.840 MHz, 145.915 MHz
Oscar 11 28 Aug 10:07:07 10:09:31 14° 93° (E) 10:11:55 145.825 FM, Beacon 2401.500 USB
RS-15 28 Aug 10:22:58 10:33:22 45° 311° (NW) 10:43:42 29.354 - 29.394 USB, Beacon 29.352 USB
ISS 28 Aug 10:38:03 10:38:55 11° 126° (SE) 10:39:46 145.800 FM
HO-68 28 Aug 11:28:48 11:35:27 43° 293° (WNW) 11:42:05 435.675 MHz FM
UKube-1 28 Aug 11:32:53 11:36:48 34° 289° (WNW) 11:40:42 145.840 MHz, 145.915 MHz
Oscar 11 28 Aug 11:41:45 11:45:53 42° 287° (WNW) 11:49:59 145.825 FM, Beacon 2401.500 USB
KITSAT 1 28 Aug 11:47:22 11:53:28 24° 256° (WSW) 11:59:34 435.175 FM
AO-40 28 Aug 11:58:52 03:10:00 45° 183° (S) 12:24:13 Beacon 2401.320
FUNcube-1 28 Aug 11:59:32 12:04:03 73° 284° (WNW) 12:08:37 145.950 - 145.970 MHz USB
ISS 28 Aug 12:11:57 12:15:14 62° 321° (NW) 12:18:32 145.800 FM
JAS-1B 28 Aug 12:43:44 12:47:10 13° 53° (NE) 12:50:29 435.800 - 435.900 CW/SSB
RS-15 28 Aug 12:43:45 12:49:42 16° 342° (NNW) 12:55:41 29.354 - 29.394 USB, Beacon 29.352 USB
SO-50 28 Aug 13:03:20 13:06:56 21° 49° (NE) 13:10:33 436.795 FM
Oscar 19 28 Aug 13:15:05 13:19:03 23° 67° (ENE) 13:23:03 437.125 CW, 437.150 USB
PANSAT 28 Aug 13:35:29 13:38:00 17° 166° (SSE) 13:40:31 not established
ITAMSAT 1 28 Aug 13:42:04 13:45:30 18° 65° (ENE) 13:48:57 435.822 SSB
Oscar 16 28 Aug 13:48:18 13:53:16 50° 72° (ENE) 13:58:15 437.025 USB, Beacon 2401.1428
ISS 28 Aug 13:51:16 13:52:32 12° 338° (NNW) 13:53:47 145.800 FM
Uribyol 2 28 Aug 13:51:59 13:56:03 24° 67° (ENE) 14:00:07 436.500 FM
AO-Echo 28 Aug 14:02:51 14:07:17 31° 70° (ENE) 14:11:36 ?
AO-27 28 Aug 14:09:00 14:13:36 34° 69° (ENE) 14:18:14 436.795 MHz FM
Gurwin Techsat 1B 28 Aug 14:23:11 14:26:59 20° 66° (ENE) 14:30:47 435.225 FM
MaSat-1 28 Aug 14:25:35 14:30:21 86° 112° (ESE) 14:35:32 437.345 MHz
JAS-1B 28 Aug 14:26:25 14:36:01 59° 70° (ENE) 14:44:52 435.800 - 435.900 CW/SSB
SO-50 28 Aug 14:43:06 14:47:43 47° 245° (WSW) 14:52:22 436.795 FM
Oscar 19 28 Aug 14:53:22 14:58:08 38° 262° (W) 15:02:57 437.125 CW, 437.150 USB
RS-15 28 Aug 15:02:19 15:08:46 17° 21° (NNE) 15:15:17 29.354 - 29.394 USB, Beacon 29.352 USB
PANSAT 28 Aug 15:14:28 15:17:39 25° 178° (S) 15:20:50 not established
TMSAT-1 28 Aug 15:14:59 15:20:00 45° 72° (ENE) 15:25:01 436.925 FM
UOSAT-12 28 Aug 15:17:15 15:21:29 32° 52° (NE) 15:25:39 437.025 FM, 437.400 FM
ITAMSAT 1 28 Aug 15:19:35 15:24:35 49° 260° (W) 15:29:36 435.822 SSB
Oscar 16 28 Aug 15:29:39 15:32:52 17° 267° (W) 15:36:06 437.025 USB, Beacon 2401.1428
Uribyol 2 28 Aug 15:30:35 15:35:18 36° 262° (W) 15:40:02 436.500 FM
AO-Echo 28 Aug 15:41:44 15:45:59 26° 264° (W) 15:50:10 ?
AO-27 28 Aug 15:48:53 15:53:07 25° 264° (W) 15:57:22 436.795 MHz FM
AO-7 28 Aug 15:52:08 15:59:34 38° 62° (ENE) 16:06:58 29.400 - 29.500 MHz
Gurwin Techsat 1B 28 Aug 16:01:31 16:06:35 46° 261° (W) 16:11:41 435.225 FM
MaSat-1 28 Aug 16:05:55 16:08:09 13° 311° (NW) 16:10:26 437.345 MHz
JAS-1B 28 Aug 16:17:58 16:26:35 34° 265° (W) 16:34:47 435.800 - 435.900 CW/SSB
Uosat F 28 Aug 16:29:08 16:33:53 44° 72° (ENE) 16:38:38 435.120 FM
PANSAT 28 Aug 16:54:31 16:57:20 19° 191° (S) 17:00:09 not established
TMSAT-1 28 Aug 16:56:22 17:00:05 19° 266° (W) 17:03:50 436.925 FM
UOSAT-12 28 Aug 16:57:35 17:01:30 26° 249° (WSW) 17:05:21 437.025 FM, 437.400 FM
ISS 28 Aug 17:08:05 17:08:46 10° 20° (NNE) 17:09:27 145.800 FM
RS-15 28 Aug 17:14:08 17:24:48 49° 51° (NE) 17:35:49 29.354 - 29.394 USB, Beacon 29.352 USB
Oscar 10/S400 28 Aug 17:33:15 17:50:57 37° 148° (SSE) 18:13:35 145.825 - 145.975 CW/USB, Beacon 145.810 USB
Sapphire 28 Aug 17:36:31 17:41:36 43° 111° (ESE) 17:46:42 437.095 MHz 1200 baud AX-25 AFSK
Hamsat 28 Aug 17:39:06 17:42:01 18° 68° (ENE) 17:44:57 145.90 MHz
AO-7 28 Aug 17:44:13 17:52:06 46° 259° (W) 18:00:02 29.400 - 29.500 MHz
OPAL 28 Aug 17:44:17 17:49:27 59° 103° (ESE) 17:54:34 ?
JAS-2 28 Aug 17:44:41 17:49:56 29° 69° (ENE) 17:54:44 435.800 - 435.900 CW/SSB, 435.910 FM
PCSat 28 Aug 18:05:52 18:11:16 88° 116° (ESE) 18:16:43 145.825 MHz
Uosat F 28 Aug 18:09:27 18:12:50 18° 266° (W) 18:16:13 435.120 FM
ISS 28 Aug 18:42:54 18:46:10 49° 38° (NE) 18:49:24 145.800 FM
Hamsat 28 Aug 19:13:47 19:17:41 34° 263° (W) 19:21:39 145.90 MHz
Sapphire 28 Aug 19:20:48 19:25:10 25° 308° (NW) 19:29:34 437.095 MHz 1200 baud AX-25 AFSK
OPAL 28 Aug 19:24:38 19:27:48 17° 298° (WNW) 19:30:58 ?
STRAND 1 28 Aug 19:24:43 19:28:53 25° 96° (E) 19:33:02 ?
RS-15 28 Aug 19:26:41 19:37:04 47° 251° (WSW) 19:47:53 29.354 - 29.394 USB, Beacon 29.352 USB
JAS-2 28 Aug 19:28:56 19:34:53 38° 261° (W) 19:40:14 435.800 - 435.900 CW/SSB, 435.910 FM
PCSat 28 Aug 19:52:43 19:55:25 14° 314° (NW) 19:58:07 145.825 MHz
HO-68 28 Aug 20:09:00 20:13:48 20° 59° (ENE) 20:18:35 435.675 MHz FM
SO-67 28 Aug 20:09:42 20:13:03 47° 261° (W) 20:16:25 435.3500 MHz FM
ISS 28 Aug 20:20:48 20:22:34 14° 232° (SW) 20:24:21 145.800 FM
